Hourly Data Report for October 07, 2013

All times are specified in Local Standard Time (LST). Add 1 hour to adjust for Daylight Saving Time where and when it is observed.

FORT LIARD
NORTHWEST TERRITORIES

60°14'00.000" N
123°28'00.000" W
213.40 m
2201579
71497
WJL

Download Data

Hourly Data (October 2013)
Hourly Data Report for October 7, 2013
Temp Definition
°C
Dew Point Temp Definition
°C
Rel Hum Definition
%
Wind Dir Definition
10's deg

Wind Spd Definition
km/h
Visibility Definition
km
Stn Press Definition
kPa
Hmdx Definition


Wind Chill Definition


Weather Definition


TIME
00:00 3.7 1.3 84 8 15   97.95     LegendNANA
01:00 3.8 1.3 84 7 13   97.90     LegendNANA
02:00 3.3 1.2 86 7 17   97.84     LegendNANA
03:00 3.6 1.4 86 7 19   97.75     LegendNANA
04:00 3.3 1.5 88 7 20   97.69     LegendNANA
05:00 3.1 1.4 89 7 22   97.64     LegendNANA
06:00 2.8 1.3 90 6 19   97.60     LegendNANA
07:00 2.8 1.5 91 6 19   97.58     LegendNANA
08:00 2.7 1.4 91 6 22   97.55     LegendNANA
09:00 2.5 1.4 92 5 22   97.53     LegendNANA
10:00 2.8 1.5 91 5 22   97.48     LegendNANA
11:00 3.0 1.7 91 5 20   97.47     LegendNANA
12:00 3.1 1.8 91 5 19   97.47     LegendNANA
13:00 3.1 1.7 91 4 17   97.47     LegendNANA
14:00 2.8 1.5 91 4 20   97.51     LegendNANA
15:00 2.6 1.4 92 6 19   97.56     LegendNANA
16:00 2.9 1.6 91 4 20   97.64     LegendNANA
17:00 2.8 1.6 92 4 19   97.71     LegendNANA
18:00 2.7 1.5 92 5 17   97.78     LegendNANA
19:00 3.4 2.1 91 4 11   97.86     LegendNANA
20:00 3.5 2.3 92 4 13   97.94     LegendNANA
21:00 3.6 2.3 91 4 13   98.04     LegendNANA
22:00 3.5 2.2 91 4 9   98.14     LegendNANA
23:00 3.5 2.2 91 3 13   98.26     LegendNANA

Notes on Data Quality.

Legend

  • E = Estimated
  • M = Missing
  • NA = Not Available
  • ‡ = Partner data that is not subject to review by the National Climate Archives
Date modified: